Private Wetterstation Wechselburg
Wetterdaten: Donnerstag, 15.02.2018
Datum Zeit Temp. +2m Bodentemp. Temp.+5cm Temp. Wind Windchill X Diff Temp. Feuchte +2m Feuchte +5cm Luftdruck Regen Wind Richtung Richtung Sonnenschein Taupunkt Windchill Windben
15.02.2018 00:00 -5,5 C 2,0 C -5,7 C -6,0 C -6,9 C 0,0 C 85 % 90 % 1022,7 hPa 0,0 l/m 0,0 km/h (0 Bft) O 90 0 min -7,6 C -6,9 C 0,0 km/h (0 Bft)
15.02.2018 00:05 -5,5 C 2,0 C -5,9 C -5,9 C -6,8 C 0,0 C 85 % 90 % 1022,7 hPa 0,0 l/m 0,0 km/h (0 Bft) O-SO 112 0 min -7,6 C -6,8 C 0,0 km/h (0 Bft)
15.02.2018 00:11 -5,5 C 2,0 C -5,9 C -6,0 C -7,0 C 0,0 C 85 % 90 % 1022,7 hPa 0,0 l/m 0,0 km/h (0 Bft) N 0 0 min -7,6 C -7,0 C 0,0 km/h (0 Bft)
15.02.2018 00:26 -5,8 C 2,0 C -5,9 C -6,3 C -7,2 C 0,0 C 85 % 90 % 1022,7 hPa 0,0 l/m 0,0 km/h (0 Bft) SO 135 0 min -7,9 C -7,2 C 0,0 km/h (0 Bft)
15.02.2018 00:27 -5,8 C 2,0 C -5,9 C -6,3 C -7,2 C 0,0 C 85 % 90 % 1022,7 hPa 0,0 l/m 0,0 km/h (0 Bft) SO 135 0 min -7,9 C -7,2 C 0,0 km/h (0 Bft)
15.02.2018 00:35 -5,7 C 2,1 C -6,1 C -6,1 C -6,8 C 0,0 C 85 % 90 % 1022,7 hPa 0,0 l/m 0,0 km/h (0 Bft) O-SO 112 0 min -7,8 C -6,8 C 0,0 km/h (0 Bft)
15.02.2018 00:40 -5,8 C 2,1 C -6,1 C -6,1 C -6,8 C 0,0 C 85 % 90 % 1022,6 hPa 0,0 l/m 0,0 km/h (0 Bft) O-SO 112 0 min -7,9 C -6,8 C 0,0 km/h (0 Bft)
15.02.2018 00:45 -5,7 C 2,1 C -6,0 C -6,1 C -6,9 C 0,0 C 86 % 90 % 1022,6 hPa 0,0 l/m 0,0 km/h (0 Bft) O-NO 67 0 min -7,7 C -6,9 C 1,6 km/h (1 Bft)
15.02.2018 00:50 -5,7 C 2,1 C -5,9 C -6,1 C -7,0 C 0,0 C 86 % 90 % 1022,6 hPa 0,0 l/m 0,2 km/h (0 Bft) O-NO 67 0 min -7,7 C -7,0 C 0,0 km/h (0 Bft)
15.02.2018 00:55 -5,7 C 2,1 C -6,1 C -6,2 C -7,3 C 0,0 C 86 % 90 % 1022,6 hPa 0,0 l/m 0,2 km/h (0 Bft) O-NO 67 0 min -7,7 C -7,3 C 0,0 km/h (0 Bft)
15.02.2018 01:00 -5,9 C 2,1 C -6,1 C -6,4 C -7,3 C 0,0 C 86 % 90 % 1022,5 hPa 0,0 l/m 0,0 km/h (0 Bft) O-SO 112 0 min -7,9 C -7,3 C 0,0 km/h (0 Bft)
15.02.2018 01:05 -5,9 C 2,1 C -6,1 C -6,3 C -7,0 C 0,0 C 86 % 90 % 1022,5 hPa 0,0 l/m 0,0 km/h (0 Bft) O-NO 67 0 min -7,9 C -7,0 C 0,0 km/h (0 Bft)
15.02.2018 01:10 -5,7 C 2,1 C -6,1 C -6,1 C -6,9 C 0,0 C 86 % 90 % 1022,5 hPa 0,0 l/m 0,0 km/h (0 Bft) O-NO 67 0 min -7,7 C -6,9 C 0,0 km/h (0 Bft)
15.02.2018 01:15 -5,7 C 2,1 C -6,0 C -6,1 C -7,0 C 0,0 C 86 % 90 % 1022,5 hPa 0,0 l/m 0,0 km/h (0 Bft) O-NO 67 0 min -7,7 C -7,0 C 0,0 km/h (0 Bft)
15.02.2018 01:20 -5,8 C 1,9 C -6,0 C -6,2 C -7,0 C 0,0 C 86 % 90 % 1022,5 hPa 0,0 l/m 0,0 km/h (0 Bft) O-NO 67 0 min -7,8 C -7,0 C 0,0 km/h (0 Bft)
15.02.2018 01:25 -5,7 C 2,1 C -6,0 C -6,1 C -6,9 C 0,0 C 86 % 90 % 1022,5 hPa 0,0 l/m 0,0 km/h (0 Bft) O-NO 67 0 min -7,7 C -6,9 C 0,0 km/h (0 Bft)
15.02.2018 01:30 -5,9 C 2,1 C -6,1 C -6,2 C -6,8 C 0,0 C 86 % 90 % 1022,5 hPa 0,0 l/m 0,0 km/h (0 Bft) O-NO 67 0 min -7,9 C -6,8 C 0,0 km/h (0 Bft)
15.02.2018 01:35 -6,0 C 1,9 C -6,1 C -6,3 C -6,8 C 0,0 C 86 % 90 % 1022,5 hPa 0,0 l/m 0,0 km/h (0 Bft) O-SO 112 0 min -8,0 C -6,8 C 0,0 km/h (0 Bft)
15.02.2018 01:40 -5,9 C 1,9 C -6,2 C -6,2 C -6,8 C 0,0 C 86 % 90 % 1022,5 hPa 0,0 l/m 0,0 km/h (0 Bft) SO 135 0 min -7,9 C -6,8 C 0,0 km/h (0 Bft)
15.02.2018 01:45 -5,9 C 1,9 C -6,2 C -6,2 C -6,9 C 0,0 C 86 % 90 % 1022,5 hPa 0,0 l/m 0,0 km/h (0 Bft) SO 135 0 min -7,9 C -6,9 C 0,0 km/h (0 Bft)
15.02.2018 01:50 -5,9 C 1,9 C -6,1 C -6,2 C -6,9 C 0,0 C 86 % 90 % 1022,5 hPa 0,0 l/m 0,0 km/h (0 Bft) SO 135 0 min -7,9 C -6,9 C 0,0 km/h (0 Bft)
15.02.2018 01:55 -5,9 C 1,9 C -6,1 C -6,2 C -6,8 C 0,0 C 86 % 90 % 1022,5 hPa 0,0 l/m 0,0 km/h (0 Bft) SO 135 0 min -7,9 C -6,8 C 0,0 km/h (0 Bft)
15.02.2018 02:00 -5,7 C 1,9 C -6,1 C -6,1 C -6,8 C 0,0 C 86 % 90 % 1022,5 hPa 0,0 l/m 0,0 km/h (0 Bft) NO 45 0 min -7,7 C -6,8 C 0,0 km/h (0 Bft)
15.02.2018 02:05 -5,7 C 1,9 C -5,9 C -6,1 C -6,8 C 0,0 C 86 % 90 % 1022,5 hPa 0,0 l/m 0,0 km/h (0 Bft) NO 45 0 min -7,7 C -6,8 C 0,0 km/h (0 Bft)
15.02.2018 02:11 -5,7 C 1,9 C -6,0 C -6,1 C -6,8 C 0,0 C 86 % 90 % 1022,5 hPa 0,0 l/m 0,0 km/h (0 Bft) N 0 0 min -7,7 C -6,8 C 0,0 km/h (0 Bft)
15.02.2018 02:27 -6,0 C 1,9 C -6,1 C -6,4 C -7,2 C 0,0 C 86 % 90 % 1022,5 hPa 0,0 l/m 0,0 km/h (0 Bft) NO 45 0 min -8,0 C -7,2 C 0,0 km/h (0 Bft)
15.02.2018 02:35 -6,1 C 1,9 C -6,4 C -6,5 C -7,2 C 0,0 C 86 % 90 % 1022,5 hPa 0,0 l/m 0,0 km/h (0 Bft) NO 45 0 min -8,0 C -7,2 C 0,0 km/h (0 Bft)
15.02.2018 02:40 -6,1 C 1,9 C -6,3 C -6,5 C -7,2 C 0,0 C 86 % 90 % 1022,7 hPa 0,0 l/m 0,0 km/h (0 Bft) NO 45 0 min -8,0 C -7,2 C 0,0 km/h (0 Bft)
15.02.2018 02:45 -6,2 C 1,9 C -6,3 C -6,5 C -7,2 C 0,0 C 86 % 90 % 1022,7 hPa 0,0 l/m 0,0 km/h (0 Bft) NO 45 0 min -8,1 C -7,2 C 0,0 km/h (0 Bft)
15.02.2018 02:50 -6,1 C 1,9 C -6,3 C -6,5 C -7,3 C 0,0 C 86 % 90 % 1022,7 hPa 0,0 l/m 0,0 km/h (0 Bft) NO 45 0 min -8,0 C -7,3 C 0,0 km/h (0 Bft)
15.02.2018 02:55 -6,1 C 1,8 C -6,1 C -6,5 C -7,3 C 0,0 C 86 % 90 % 1022,7 hPa 0,0 l/m 0,0 km/h (0 Bft) NO 45 0 min -8,0 C -7,3 C 0,0 km/h (0 Bft)
15.02.2018 03:00 -6,1 C 1,9 C -6,1 C -6,4 C -7,1 C 0,0 C 86 % 90 % 1022,8 hPa 0,0 l/m 0,0 km/h (0 Bft) NO 45 0 min -8,0 C -7,1 C 0,0 km/h (0 Bft)
15.02.2018 03:05 -6,1 C 1,9 C -6,3 C -6,4 C -7,0 C 0,0 C 86 % 90 % 1022,8 hPa 0,0 l/m 0,2 km/h (0 Bft) NO 45 0 min -8,0 C -7,0 C 1,9 km/h (1 Bft)
15.02.2018 03:10 -6,1 C 1,9 C -6,3 C -6,4 C -7,1 C 0,0 C 86 % 90 % 1022,8 hPa 0,0 l/m 0,2 km/h (0 Bft) NO 45 0 min -8,0 C -7,1 C 0,0 km/h (0 Bft)
15.02.2018 03:15 -6,1 C 1,8 C -6,2 C -6,4 C -7,0 C 0,0 C 86 % 90 % 1022,8 hPa 0,0 l/m 0,2 km/h (0 Bft) NO 45 0 min -8,0 C -7,0 C 0,0 km/h (0 Bft)
15.02.2018 03:20 -6,1 C 1,8 C -6,1 C -6,4 C -7,0 C 0,0 C 86 % 90 % 1022,5 hPa 0,0 l/m 0,2 km/h (0 Bft) NO 45 0 min -8,0 C -7,0 C 0,0 km/h (0 Bft)
15.02.2018 03:25 -6,1 C 1,9 C -6,3 C -6,4 C -7,1 C 0,0 C 86 % 90 % 1022,5 hPa 0,0 l/m 0,0 km/h (0 Bft) NO 45 0 min -8,0 C -7,1 C 0,0 km/h (0 Bft)
15.02.2018 03:30 -6,1 C 1,8 C -6,3 C -6,4 C -7,1 C 0,0 C 86 % 90 % 1022,5 hPa 0,0 l/m 0,0 km/h (0 Bft) NO 45 0 min -8,0 C -7,1 C 0,0 km/h (0 Bft)
15.02.2018 03:35 -6,1 C 1,9 C -6,1 C -6,4 C -7,0 C 0,0 C 86 % 90 % 1022,5 hPa 0,0 l/m 0,0 km/h (0 Bft) NO 45 0 min -8,0 C -7,0 C 0,0 km/h (0 Bft)
15.02.2018 03:40 -6,1 C 1,8 C -6,4 C -6,4 C -7,1 C 0,0 C 86 % 90 % 1022,8 hPa 0,0 l/m 0,0 km/h (0 Bft) NO 45 0 min -8,0 C -7,1 C 0,0 km/h (0 Bft)
15.02.2018 03:45 -6,1 C 1,9 C -6,4 C -6,4 C -6,9 C 0,0 C 86 % 90 % 1022,8 hPa 0,0 l/m 0,0 km/h (0 Bft) NO 45 0 min -8,0 C -6,9 C 0,0 km/h (0 Bft)
15.02.2018 03:50 -6,1 C 1,8 C -6,1 C -6,3 C -6,8 C 0,0 C 86 % 90 % 1022,8 hPa 0,0 l/m 0,0 km/h (0 Bft) NO 45 0 min -8,0 C -6,8 C 0,0 km/h (0 Bft)
15.02.2018 03:55 -5,9 C 1,9 C -6,1 C -6,1 C -6,5 C 0,0 C 86 % 90 % 1022,8 hPa 0,0 l/m 0,2 km/h (0 Bft) NO 45 0 min -7,9 C -6,5 C 0,0 km/h (0 Bft)
15.02.2018 04:00 -5,9 C 1,8 C -6,0 C -6,1 C -6,6 C 0,0 C 86 % 90 % 1022,8 hPa 0,0 l/m 0,2 km/h (0 Bft) NO 45 0 min -7,9 C -6,6 C 0,0 km/h (0 Bft)
15.02.2018 04:05 -5,7 C 1,8 C -6,1 C -6,0 C -6,7 C 0,0 C 86 % 90 % 1022,8 hPa 0,0 l/m 0,0 km/h (0 Bft) NO 45 0 min -7,7 C -6,7 C 0,0 km/h (0 Bft)
15.02.2018 04:11 -5,9 C 1,8 C -6,1 C -6,2 C -6,8 C 0,0 C 86 % 90 % 1022,8 hPa 0,0 l/m 0,0 km/h (0 Bft) N 0 0 min -7,9 C -6,8 C 0,0 km/h (0 Bft)
15.02.2018 04:26 -5,9 C 1,9 C -6,5 C -6,3 C -7,1 C 0,0 C 86 % 90 % 1022,8 hPa 0,0 l/m 0,0 km/h (0 Bft) NO 45 0 min -7,9 C -7,1 C 0,0 km/h (0 Bft)
15.02.2018 04:35 -5,7 C 1,8 C -6,1 C -6,0 C -6,7 C 0,0 C 86 % 90 % 1022,8 hPa 0,0 l/m 0,3 km/h (0 Bft) NO 45 0 min -7,7 C -6,7 C 2,3 km/h (1 Bft)
15.02.2018 04:40 -5,7 C 1,8 C -6,1 C -6,0 C -6,6 C 0,0 C 86 % 90 % 1021,2 hPa 0,0 l/m 0,3 km/h (0 Bft) NO 45 0 min -7,7 C -6,6 C 0,0 km/h (0 Bft)
15.02.2018 04:45 -5,9 C 1,8 C -6,3 C -6,2 C -6,7 C 0,0 C 86 % 90 % 1021,2 hPa 0,0 l/m 0,2 km/h (0 Bft) NO 45 0 min -7,9 C -6,7 C 0,0 km/h (0 Bft)
15.02.2018 04:50 -6,0 C 1,8 C -6,4 C -6,2 C -6,7 C 0,0 C 86 % 90 % 1021,2 hPa 0,0 l/m 0,0 km/h (0 Bft) NO 45 0 min -8,0 C -6,7 C 0,0 km/h (0 Bft)
15.02.2018 04:55 -6,1 C 1,8 C -6,5 C -6,4 C -6,9 C 0,0 C 86 % 90 % 1021,2 hPa 0,0 l/m 0,0 km/h (0 Bft) NO 45 0 min -8,0 C -6,9 C 0,0 km/h (0 Bft)
15.02.2018 05:00 -6,1 C 1,8 C -6,6 C -6,4 C -7,1 C 0,0 C 86 % 89 % 1021,2 hPa 0,0 l/m 0,0 km/h (0 Bft) NO 45 0 min -8,0 C -7,1 C 0,0 km/h (0 Bft)
15.02.2018 05:05 -6,1 C 1,8 C -6,5 C -6,4 C -7,0 C 0,0 C 86 % 90 % 1021,2 hPa 0,0 l/m 0,0 km/h (0 Bft) NO 45 0 min -8,0 C -7,0 C 0,0 km/h (0 Bft)
15.02.2018 05:10 -6,1 C 1,8 C -6,5 C -6,4 C -7,1 C 0,0 C 86 % 90 % 1021,2 hPa 0,0 l/m 0,0 km/h (0 Bft) NO 45 0 min -8,0 C -7,1 C 0,0 km/h (0 Bft)
15.02.2018 05:15 -6,3 C 1,8 C -6,5 C -6,6 C -7,1 C 0,0 C 86 % 90 % 1021,2 hPa 0,0 l/m 0,0 km/h (0 Bft) NO 45 0 min -8,2 C -7,1 C 0,0 km/h (0 Bft)
15.02.2018 05:20 -6,3 C 1,8 C -6,5 C -6,6 C -7,2 C 0,0 C 86 % 90 % 1021,8 hPa 0,0 l/m 0,0 km/h (0 Bft) NO 45 0 min -8,2 C -7,2 C 0,0 km/h (0 Bft)
15.02.2018 05:25 -6,4 C 1,8 C -6,5 C -6,7 C -7,4 C 0,0 C 86 % 90 % 1021,8 hPa 0,0 l/m 0,0 km/h (0 Bft) NO 45 0 min -8,3 C -7,4 C 0,0 km/h (0 Bft)
15.02.2018 05:30 -6,3 C 1,8 C -6,7 C -6,7 C -7,6 C 0,0 C 86 % 90 % 1021,8 hPa 0,0 l/m 0,0 km/h (0 Bft) NO 45 0 min -8,2 C -7,6 C 0,0 km/h (0 Bft)
15.02.2018 05:35 -6,5 C 1,8 C -6,8 C -6,8 C -7,5 C 0,0 C 86 % 90 % 1021,8 hPa 0,0 l/m 0,2 km/h (0 Bft) O-NO 67 0 min -8,4 C -7,5 C 1,8 km/h (1 Bft)
15.02.2018 05:40 -6,3 C 1,8 C -6,5 C -6,6 C -7,3 C 0,0 C 86 % 90 % 1021,9 hPa 0,0 l/m 0,6 km/h (0 Bft) O-SO 112 0 min -8,2 C -7,3 C 1,6 km/h (1 Bft)
15.02.2018 05:45 -6,4 C 1,8 C -6,5 C -6,6 C -7,0 C 0,0 C 86 % 90 % 1021,9 hPa 0,0 l/m 0,8 km/h (0 Bft) O-SO 112 0 min -8,3 C -7,0 C 0,0 km/h (0 Bft)
15.02.2018 05:50 -6,4 C 1,8 C -6,5 C -6,6 C -7,1 C 0,0 C 86 % 90 % 1021,9 hPa 0,0 l/m 0,2 km/h (0 Bft) O-NO 67 0 min -8,3 C -7,1 C 0,0 km/h (0 Bft)
15.02.2018 05:55 -6,4 C 1,8 C -6,5 C -6,7 C -7,3 C 0,0 C 86 % 90 % 1021,9 hPa 0,0 l/m 0,0 km/h (0 Bft) O-NO 67 0 min -8,3 C -7,3 C 0,0 km/h (0 Bft)
15.02.2018 06:00 -6,4 C 1,8 C -6,5 C -6,7 C -7,3 C 0,0 C 86 % 90 % 1021,9 hPa 0,0 l/m 0,0 km/h (0 Bft) O-NO 67 0 min -8,3 C -7,3 C 0,0 km/h (0 Bft)
15.02.2018 06:05 -6,4 C 1,8 C -6,5 C -6,7 C -7,2 C 0,0 C 86 % 90 % 1021,9 hPa 0,0 l/m 0,0 km/h (0 Bft) O-SO 112 0 min -8,3 C -7,2 C 0,0 km/h (0 Bft)
15.02.2018 06:11 -6,3 C 1,8 C -6,5 C -6,6 C -7,3 C 0,0 C 86 % 90 % 1021,9 hPa 0,0 l/m 0,0 km/h (0 Bft) N 0 0 min -8,2 C -7,3 C 0,0 km/h (0 Bft)
15.02.2018 06:26 -6,3 C 1,8 C -6,1 C -6,5 C -6,9 C 0,0 C 87 % 90 % 1021,9 hPa 0,0 l/m 0,2 km/h (0 Bft) NO 45 0 min -8,1 C -6,9 C 1,6 km/h (1 Bft)
15.02.2018 06:35 -6,3 C 1,8 C -6,1 C -6,5 C -6,8 C 0,0 C 87 % 90 % 1021,9 hPa 0,0 l/m 0,2 km/h (0 Bft) NO 45 0 min -8,1 C -6,8 C 0,0 km/h (0 Bft)
15.02.2018 06:40 -6,3 C 1,8 C -6,1 C -6,5 C -6,9 C 0,0 C 87 % 90 % 1021,9 hPa 0,0 l/m 0,0 km/h (0 Bft) NO 45 0 min -8,1 C -6,9 C 0,0 km/h (0 Bft)
15.02.2018 06:45 -6,3 C 1,8 C -6,1 C -6,6 C -7,1 C 0,0 C 87 % 90 % 1021,9 hPa 0,0 l/m 0,0 km/h (0 Bft) NO 45 0 min -8,1 C -7,1 C 0,0 km/h (0 Bft)
15.02.2018 06:50 -6,4 C 1,8 C -6,1 C -6,6 C -7,1 C 0,0 C 87 % 90 % 1021,9 hPa 0,0 l/m 0,0 km/h (0 Bft) NO 45 0 min -8,2 C -7,1 C 0,0 km/h (0 Bft)
15.02.2018 06:55 -6,3 C 1,8 C -6,3 C -6,6 C -7,2 C 0,0 C 87 % 90 % 1021,9 hPa 0,0 l/m 0,0 km/h (0 Bft) NO 45 0 min -8,1 C -7,2 C 0,0 km/h (0 Bft)
15.02.2018 07:00 -6,3 C 1,8 C -6,1 C -6,6 C -7,2 C 0,0 C 87 % 90 % 1021,9 hPa 0,0 l/m 0,0 km/h (0 Bft) NO 45 0 min -8,1 C -7,2 C 0,0 km/h (0 Bft)
15.02.2018 07:05 -6,5 C 1,8 C -6,1 C -6,7 C -7,1 C 0,0 C 86 % 90 % 1021,9 hPa 0,0 l/m 0,0 km/h (0 Bft) NO 45 0 min -8,4 C -7,1 C 0,0 km/h (0 Bft)
15.02.2018 07:10 -6,5 C 1,8 C -6,1 C -6,7 C -7,1 C 0,0 C 87 % 90 % 1021,9 hPa 0,0 l/m 0,0 km/h (0 Bft) NO 45 0 min -8,3 C -7,1 C 0,0 km/h (0 Bft)
15.02.2018 07:15 -6,5 C 1,8 C -6,1 C -6,7 C -7,0 C 0,0 C 87 % 90 % 1021,9 hPa 0,0 l/m 0,0 km/h (0 Bft) NO 45 0 min -8,3 C -7,0 C 0,0 km/h (0 Bft)
15.02.2018 07:20 -6,5 C 1,8 C -5,9 C -6,6 C -6,9 C 0,0 C 87 % 90 % 1021,4 hPa 0,0 l/m 0,0 km/h (0 Bft) NO 45 0 min -8,3 C -6,9 C 0,0 km/h (0 Bft)
15.02.2018 07:25 -6,4 C 1,8 C -5,7 C -6,5 C -6,8 C 0,0 C 87 % 90 % 1021,4 hPa 0,0 l/m 0,0 km/h (0 Bft) NO 45 0 min -8,2 C -6,8 C 0,0 km/h (0 Bft)
15.02.2018 07:30 -6,4 C 1,8 C -5,7 C -6,5 C -6,6 C 0,0 C 87 % 90 % 1021,4 hPa 0,0 l/m 0,0 km/h (0 Bft) NO 45 0 min -8,2 C -6,6 C 0,0 km/h (0 Bft)
15.02.2018 07:35 -6,4 C 1,8 C -5,7 C -6,5 C -6,6 C 0,0 C 87 % 90 % 1021,4 hPa 0,0 l/m 0,0 km/h (0 Bft) NO 45 0 min -8,2 C -6,6 C 0,0 km/h (0 Bft)
15.02.2018 07:40 -6,4 C 1,8 C -5,7 C -6,4 C -6,5 C 0,0 C 87 % 90 % 1021,0 hPa 0,0 l/m 0,0 km/h (0 Bft) NO 45 0 min -8,2 C -6,5 C 0,0 km/h (0 Bft)
15.02.2018 07:45 -6,3 C 1,8 C -5,6 C -6,2 C -6,2 C 0,1 C 87 % 90 % 1021,0 hPa 0,0 l/m 0,0 km/h (0 Bft) NO 45 0 min -8,1 C -6,2 C 0,0 km/h (0 Bft)
15.02.2018 07:50 -6,1 C 1,8 C -5,5 C -6,1 C -6,1 C 0,0 C 87 % 90 % 1021,0 hPa 0,0 l/m 0,0 km/h (0 Bft) NO 45 0 min -7,9 C -6,1 C 0,0 km/h (0 Bft)
15.02.2018 07:55 -6,1 C 1,8 C -5,3 C -5,9 C -5,9 C 0,2 C 87 % 90 % 1021,0 hPa 0,0 l/m 0,0 km/h (0 Bft) NO 45 0 min -7,9 C -5,9 C 0,0 km/h (0 Bft)
15.02.2018 08:00 -6,1 C 1,8 C -5,3 C -5,7 C -5,7 C 0,4 C 87 % 90 % 1020,7 hPa 0,0 l/m 0,0 km/h (0 Bft) NO 45 0 min -7,9 C -5,7 C 0,0 km/h (0 Bft)
15.02.2018 08:05 -6,0 C 1,8 C -5,1 C -5,5 C -5,5 C 0,5 C 87 % 91 % 1020,7 hPa 0,0 l/m 0,0 km/h (0 Bft) NO 45 0 min -7,8 C -5,5 C 0,0 km/h (0 Bft)
15.02.2018 08:11 -6,0 C 1,8 C -5,0 C -5,4 C -5,4 C 0,6 C 87 % 91 % 1020,7 hPa 0,0 l/m 0,0 km/h (0 Bft) N 0 0 min -7,8 C -5,4 C 0,0 km/h (0 Bft)
15.02.2018 08:26 -5,7 C 1,8 C -4,3 C -4,4 C -4,4 C 1,3 C 87 % 90 % 1020,8 hPa 0,0 l/m 0,0 km/h (0 Bft) NO 45 0 min -7,5 C -4,4 C 0,0 km/h (0 Bft)
15.02.2018 08:35 -5,3 C 1,8 C -3,5 C -3,5 C -3,5 C 1,8 C 88 % 91 % 1020,8 hPa 0,0 l/m 0,0 km/h (0 Bft) O-NO 67 9 min -7,0 C -3,5 C 0,0 km/h (0 Bft)
15.02.2018 08:40 -5,2 C 1,8 C -3,3 C -3,2 C -3,2 C 2,0 C 88 % 90 % 1020,6 hPa 0,0 l/m 0,0 km/h (0 Bft) NO 45 5 min -6,9 C -3,2 C 1,6 km/h (1 Bft)
15.02.2018 08:45 -5,1 C 1,8 C -3,3 C -3,3 C -3,3 C 1,8 C 87 % 90 % 1020,6 hPa 0,0 l/m 0,3 km/h (0 Bft) NO 45 0 min -6,9 C -3,3 C 0,0 km/h (0 Bft)
15.02.2018 08:50 -5,1 C 1,8 C -3,3 C -3,4 C -3,4 C 1,7 C 87 % 90 % 1020,6 hPa 0,0 l/m 0,3 km/h (0 Bft) NO 45 0 min -6,9 C -3,4 C 0,0 km/h (0 Bft)
15.02.2018 08:55 -4,9 C 1,8 C -3,3 C -3,5 C -3,5 C 1,4 C 87 % 90 % 1020,6 hPa 0,0 l/m 0,3 km/h (0 Bft) O-SO 112 0 min -6,7 C -3,5 C 3,1 km/h (1 Bft)
15.02.2018 09:00 -4,5 C 1,6 C -2,9 C -3,2 C -3,2 C 1,3 C 87 % 90 % 1020,6 hPa 0,0 l/m 0,5 km/h (0 Bft) SO 135 0 min -6,3 C -3,2 C 0,0 km/h (0 Bft)
15.02.2018 09:05 -4,3 C 1,6 C -2,5 C -2,8 C -2,8 C 1,5 C 88 % 90 % 1020,6 hPa 0,0 l/m 0,2 km/h (0 Bft) SO 135 0 min -6,0 C -2,8 C 0,0 km/h (0 Bft)
15.02.2018 09:10 -4,3 C 1,6 C -2,3 C -2,5 C -2,5 C 1,8 C 88 % 90 % 1020,6 hPa 0,0 l/m 0,2 km/h (0 Bft) SO 135 0 min -6,0 C -2,5 C 0,0 km/h (0 Bft)
15.02.2018 09:15 -4,1 C 1,6 C -2,1 C -2,1 C -2,1 C 2,0 C 88 % 90 % 1020,6 hPa 0,0 l/m 0,2 km/h (0 Bft) SO 135 0 min -5,8 C -2,1 C 0,0 km/h (0 Bft)
15.02.2018 09:20 -3,9 C 1,5 C -1,9 C -2,1 C -2,1 C 1,8 C 88 % 89 % 1020,5 hPa 0,0 l/m 0,5 km/h (0 Bft) SO 135 0 min -5,6 C -2,1 C 2,3 km/h (1 Bft)
15.02.2018 09:25 -3,7 C 1,6 C -1,9 C -2,2 C -2,2 C 1,5 C 88 % 89 % 1020,5 hPa 0,0 l/m 1,1 km/h (1 Bft) W 270 0 min -5,4 C -2,2 C 3,9 km/h (1 Bft)
15.02.2018 09:30 -3,5 C 1,6 C -1,7 C -2,0 C -2,0 C 1,5 C 88 % 89 % 1020,5 hPa 0,0 l/m 0,8 km/h (0 Bft) W 270 0 min -5,2 C -2,0 C 0,0 km/h (0 Bft)
15.02.2018 09:35 -3,3 C 1,5 C -1,3 C -1,7 C -1,7 C 1,6 C 88 % 89 % 1020,5 hPa 0,0 l/m 0,0 km/h (0 Bft) W 270 0 min -5,0 C -1,7 C 0,0 km/h (0 Bft)
15.02.2018 09:40 -3,3 C 1,5 C -1,1 C -1,5 C -1,5 C 1,8 C 88 % 89 % 1021,1 hPa 0,0 l/m 0,0 km/h (0 Bft) W 270 0 min -5,0 C -1,5 C 0,0 km/h (0 Bft)
15.02.2018 09:45 -2,9 C 1,5 C -0,8 C -0,9 C -0,9 C 2,0 C 88 % 88 % 1021,1 hPa 0,0 l/m 0,0 km/h (0 Bft) W-SW 247 0 min -4,6 C -0,9 C 0,0 km/h (0 Bft)
15.02.2018 09:50 -2,8 C 1,5 C -0,6 C -0,7 C -0,7 C 2,1 C 88 % 88 % 1021,1 hPa 0,0 l/m 0,0 km/h (0 Bft) W 270 0 min -4,5 C -0,7 C 0,0 km/h (0 Bft)
15.02.2018 09:55 -2,5 C 1,5 C -0,3 C -0,5 C -0,5 C 2,0 C 87 % 88 % 1021,1 hPa 0,0 l/m 0,0 km/h (0 Bft) W-SW 247 0 min -4,4 C -0,5 C 0,0 km/h (0 Bft)
15.02.2018 10:00 -2,3 C 1,5 C -0,3 C -0,3 C -0,3 C 2,0 C 87 % 88 % 1021,1 hPa 0,0 l/m 0,0 km/h (0 Bft) W-SW 247 0 min -4,2 C -0,3 C 0,0 km/h (0 Bft)
15.02.2018 10:05 -1,9 C 1,5 C -0,1 C -0,1 C -0,1 C 1,8 C 87 % 87 % 1021,1 hPa 0,0 l/m 0,0 km/h (0 Bft) W 270 0 min -3,8 C -0,1 C 0,0 km/h (0 Bft)
15.02.2018 10:11 -1,7 C 1,5 C 0,1 C -0,2 C -0,2 C 1,5 C 88 % 87 % 1021,1 hPa 0,0 l/m 0,2 km/h (0 Bft) N 0 0 min -3,4 C -0,2 C 0,0 km/h (0 Bft)
15.02.2018 10:26 -0,5 C 1,5 C 0,7 C 0,3 C 0,3 C 0,8 C 87 % 86 % 1020,3 hPa 0,0 l/m 0,0 km/h (0 Bft) SO 135 0 min -2,4 C 0,3 C 0,0 km/h (0 Bft)
15.02.2018 10:35 0,0 C 1,5 C 0,9 C 0,4 C 0,4 C 0,4 C 86 % 85 % 1020,3 hPa 0,0 l/m 0,0 km/h (0 Bft) O-SO 112 0 min -2,1 C 0,4 C 0,0 km/h (0 Bft)
15.02.2018 10:40 0,3 C 1,5 C 1,1 C 0,5 C 0,5 C 0,2 C 85 % 85 % 1020,3 hPa 0,0 l/m 0,2 km/h (0 Bft) O-SO 112 0 min -1,9 C 0,5 C 0,0 km/h (0 Bft)
15.02.2018 10:45 0,7 C 1,5 C 1,2 C 0,8 C 0,8 C 0,1 C 84 % 83 % 1020,3 hPa 0,0 l/m 0,6 km/h (0 Bft) O-SO 112 0 min -1,7 C 0,8 C 1,9 km/h (1 Bft)
15.02.2018 10:50 0,8 C 1,5 C 1,4 C 1,1 C 1,1 C 0,3 C 84 % 82 % 1020,3 hPa 0,0 l/m 0,8 km/h (0 Bft) SO 135 0 min -1,6 C 1,1 C 1,8 km/h (1 Bft)
15.02.2018 10:55 1,0 C 1,4 C 1,6 C 1,5 C 1,5 C 0,5 C 81 % 81 % 1020,3 hPa 0,0 l/m 1,1 km/h (1 Bft) O-NO 67 0 min -1,9 C 1,5 C 0,0 km/h (0 Bft)
15.02.2018 11:00 1,3 C 1,4 C 1,7 C 2,0 C 2,0 C 0,7 C 81 % 81 % 1020,6 hPa 0,0 l/m 1,0 km/h (0 Bft) O-SO 112 0 min -1,6 C 2,0 C 0,0 km/h (0 Bft)
15.02.2018 11:05 1,5 C 1,4 C 2,0 C 2,5 C 2,5 C 1,0 C 79 % 79 % 1020,6 hPa 0,0 l/m 0,8 km/h (0 Bft) O-SO 112 0 min -1,7 C 2,5 C 0,0 km/h (0 Bft)
15.02.2018 11:10 1,6 C 1,4 C 2,0 C 2,8 C 2,8 C 1,2 C 77 % 79 % 1020,6 hPa 0,0 l/m 1,0 km/h (0 Bft) O 90 0 min -2,0 C 2,8 C 0,0 km/h (0 Bft)
15.02.2018 11:15 1,8 C 1,4 C 2,3 C 3,2 C 3,2 C 1,4 C 76 % 76 % 1020,6 hPa 0,0 l/m 1,0 km/h (0 Bft) SO 135 0 min -2,0 C 3,2 C 1,8 km/h (1 Bft)
15.02.2018 11:20 1,9 C 1,4 C 2,3 C 3,6 C 3,6 C 1,7 C 74 % 74 % 1020,6 hPa 0,0 l/m 0,8 km/h (0 Bft) S-SO 157 0 min -2,2 C 3,6 C 1,6 km/h (1 Bft)
15.02.2018 11:25 2,1 C 1,4 C 2,5 C 4,2 C 4,2 C 2,1 C 74 % 75 % 1020,6 hPa 0,0 l/m 0,6 km/h (0 Bft) SO 135 0 min -2,0 C 4,2 C 0,0 km/h (0 Bft)
15.02.2018 11:30 2,3 C 1,4 C 2,7 C 4,3 C 4,3 C 2,0 C 72 % 74 % 1020,6 hPa 0,0 l/m 0,3 km/h (0 Bft) SO 135 0 min -2,2 C 4,3 C 0,0 km/h (0 Bft)
15.02.2018 11:35 2,4 C 1,4 C 2,6 C 4,4 C 4,4 C 2,0 C 71 % 73 % 1020,6 hPa 0,0 l/m 0,5 km/h (0 Bft) S 180 0 min -2,3 C 4,4 C 2,7 km/h (1 Bft)
15.02.2018 11:40 2,5 C 1,4 C 2,8 C 4,5 C 4,5 C 2,0 C 69 % 72 % 1019,9 hPa 0,0 l/m 0,6 km/h (0 Bft) O 90 0 min -2,6 C 4,5 C 2,7 km/h (1 Bft)
15.02.2018 11:45 2,5 C 1,4 C 2,9 C 4,6 C 4,6 C 2,1 C 69 % 72 % 1019,9 hPa 0,0 l/m 0,6 km/h (0 Bft) S 180 0 min -2,6 C 4,6 C 0,0 km/h (0 Bft)
15.02.2018 11:50 2,7 C 1,4 C 3,1 C 4,8 C 4,8 C 2,1 C 68 % 72 % 1019,9 hPa 0,0 l/m 0,5 km/h (0 Bft) S 180 0 min -2,6 C 4,8 C 2,4 km/h (1 Bft)
15.02.2018 11:55 2,8 C 1,4 C 3,1 C 5,0 C 5,0 C 2,2 C 66 % 71 % 1019,9 hPa 0,0 l/m 0,5 km/h (0 Bft) S 180 0 min -2,9 C 5,0 C 3,1 km/h (1 Bft)
15.02.2018 12:00 2,9 C 1,4 C 3,2 C 5,2 C 5,2 C 2,3 C 65 % 70 % 1019,9 hPa 0,0 l/m 0,8 km/h (0 Bft) S 180 0 min -3,0 C 5,2 C 2,7 km/h (1 Bft)
15.02.2018 12:05 3,1 C 1,4 C 3,3 C 5,2 C 5,2 C 2,1 C 63 % 68 % 1019,9 hPa 0,0 l/m 1,6 km/h (1 Bft) S 180 0 min -3,2 C 5,2 C 0,0 km/h (0 Bft)
15.02.2018 12:11 3,0 C 1,4 C 3,5 C 5,2 C 5,2 C 2,2 C 62 % 67 % 1019,9 hPa 0,0 l/m 1,6 km/h (1 Bft) N 0 0 min -3,6 C 5,2 C 1,6 km/h (1 Bft)
15.02.2018 12:26 3,2 C 1,4 C 3,6 C 5,3 C 5,3 C 2,1 C 60 % 64 % 1019,9 hPa 0,0 l/m 1,8 km/h (1 Bft) O-SO 112 0 min -3,8 C 5,3 C 6,6 km/h (2 Bft)
15.02.2018 12:35 3,3 C 1,4 C 3,7 C 5,4 C 5,4 C 2,1 C 59 % 64 % 1019,9 hPa 0,0 l/m 1,8 km/h (1 Bft) SO 135 0 min -3,9 C 5,4 C 7,6 km/h (2 Bft)
15.02.2018 12:40 3,4 C 1,4 C 3,9 C 5,4 C 5,4 C 2,0 C 59 % 63 % 1019,9 hPa 0,0 l/m 1,4 km/h (1 Bft) N-NW 337 0 min -3,8 C 5,4 C 3,5 km/h (1 Bft)
15.02.2018 12:45 3,5 C 1,4 C 3,9 C 5,4 C 5,4 C 1,9 C 59 % 62 % 1019,9 hPa 0,0 l/m 1,9 km/h (1 Bft) O-SO 112 0 min -3,7 C 5,4 C 3,9 km/h (1 Bft)
15.02.2018 12:50 3,5 C 1,4 C 3,9 C 5,5 C 5,5 C 2,0 C 58 % 61 % 1019,9 hPa 0,0 l/m 1,8 km/h (1 Bft) W 270 0 min -4,0 C 5,5 C 0,0 km/h (0 Bft)
15.02.2018 12:55 3,5 C 1,4 C 4,0 C 5,5 C 5,5 C 2,0 C 57 % 60 % 1019,9 hPa 0,0 l/m 1,4 km/h (1 Bft) O-SO 112 0 min -4,2 C 5,5 C 2,3 km/h (1 Bft)
15.02.2018 13:00 3,6 C 1,5 C 4,0 C 5,6 C 5,6 C 2,0 C 57 % 60 % 1019,1 hPa 0,0 l/m 1,4 km/h (1 Bft) O-SO 112 0 min -4,1 C 5,6 C 1,6 km/h (1 Bft)
15.02.2018 13:05 3,6 C 1,5 C 4,3 C 5,7 C 5,7 C 2,1 C 57 % 60 % 1019,1 hPa 0,0 l/m 1,4 km/h (1 Bft) O-SO 112 0 min -4,1 C 5,7 C 0,0 km/h (0 Bft)
15.02.2018 13:10 3,7 C 1,5 C 4,1 C 5,7 C 5,7 C 2,0 C 55 % 59 % 1019,1 hPa 0,0 l/m 1,6 km/h (1 Bft) O-SO 112 0 min -4,5 C 5,7 C 2,1 km/h (1 Bft)
15.02.2018 13:15 3,6 C 1,5 C 4,3 C 5,7 C 5,7 C 2,1 C 55 % 60 % 1019,1 hPa 0,0 l/m 1,8 km/h (1 Bft) O-SO 112 0 min -4,6 C 5,7 C 3,7 km/h (1 Bft)
15.02.2018 13:20 3,7 C 1,5 C 4,3 C 5,6 C 5,6 C 1,9 C 54 % 57 % 1018,8 hPa 0,0 l/m 2,1 km/h (1 Bft) O-SO 112 0 min -4,7 C 5,6 C 5,0 km/h (1 Bft)
15.02.2018 13:25 3,9 C 1,5 C 4,3 C 5,7 C 5,7 C 1,8 C 54 % 57 % 1018,8 hPa 0,0 l/m 1,6 km/h (1 Bft) SO 135 0 min -4,5 C 5,7 C 8,0 km/h (2 Bft)
15.02.2018 13:30 3,8 C 1,5 C 4,3 C 5,7 C 5,7 C 1,9 C 54 % 57 % 1018,8 hPa 0,0 l/m 1,1 km/h (1 Bft) O 90 0 min -4,6 C 5,7 C 0,0 km/h (0 Bft)
15.02.2018 13:35 3,9 C 1,5 C 4,2 C 5,7 C 5,7 C 1,8 C 54 % 57 % 1018,8 hPa 0,0 l/m 1,1 km/h (1 Bft) W-SW 247 0 min -4,5 C 5,7 C 2,9 km/h (1 Bft)
15.02.2018 13:40 3,9 C 1,5 C 4,3 C 5,6 C 5,6 C 1,7 C 54 % 57 % 1018,8 hPa 0,0 l/m 1,3 km/h (1 Bft) O-SO 112 0 min -4,5 C 5,6 C 0,0 km/h (0 Bft)
15.02.2018 13:45 4,1 C 1,5 C 4,3 C 5,6 C 5,6 C 1,5 C 55 % 57 % 1018,8 hPa 0,0 l/m 0,6 km/h (0 Bft) N-NW 337 0 min -4,1 C 5,6 C 0,0 km/h (0 Bft)
15.02.2018 13:50 4,1 C 1,5 C 4,1 C 5,6 C 5,6 C 1,5 C 54 % 57 % 1018,8 hPa 0,0 l/m 0,6 km/h (0 Bft) O-SO 112 0 min -4,4 C 5,6 C 2,1 km/h (1 Bft)
15.02.2018 13:55 4,2 C 1,5 C 4,1 C 5,5 C 5,5 C 1,3 C 54 % 57 % 1018,8 hPa 0,0 l/m 1,1 km/h (1 Bft) S-SO 157 0 min -4,3 C 5,5 C 2,9 km/h (1 Bft)
15.02.2018 14:00 4,3 C 1,5 C 4,2 C 5,5 C 5,5 C 1,2 C 54 % 57 % 1018,8 hPa 0,0 l/m 1,0 km/h (0 Bft) O-SO 112 0 min -4,2 C 5,5 C 0,0 km/h (0 Bft)
15.02.2018 14:05 4,3 C 1,5 C 4,1 C 5,5 C 5,5 C 1,2 C 54 % 56 % 1018,8 hPa 0,0 l/m 1,0 km/h (0 Bft) N-NO 22 0 min -4,2 C 5,5 C 1,6 km/h (1 Bft)
15.02.2018 14:11 4,3 C 1,5 C 4,1 C 5,5 C 5,5 C 1,2 C 54 % 56 % 1018,8 hPa 0,0 l/m 0,8 km/h (0 Bft) N 0 0 min -4,2 C 5,5 C 2,7 km/h (1 Bft)
15.02.2018 14:26 4,3 C 1,5 C 4,0 C 5,3 C 5,3 C 1,0 C 53 % 55 % 1018,8 hPa 0,0 l/m 1,0 km/h (0 Bft) SO 135 0 min -4,4 C 5,3 C 2,4 km/h (1 Bft)
15.02.2018 14:35 4,1 C 1,5 C 4,0 C 5,1 C 5,1 C 1,0 C 52 % 55 % 1018,8 hPa 0,0 l/m 0,8 km/h (0 Bft) SO 135 0 min -4,9 C 5,1 C 0,0 km/h (0 Bft)
15.02.2018 14:40 4,0 C 1,5 C 4,0 C 5,0 C 5,0 C 1,0 C 53 % 56 % 1018,3 hPa 0,0 l/m 1,1 km/h (1 Bft) SO 135 0 min -4,7 C 5,0 C 1,9 km/h (1 Bft)
15.02.2018 14:45 3,9 C 1,5 C 3,8 C 4,7 C 4,7 C 0,8 C 53 % 55 % 1018,3 hPa 0,0 l/m 1,0 km/h (0 Bft) O-SO 112 0 min -4,8 C 4,7 C 1,8 km/h (1 Bft)
15.02.2018 14:50 3,9 C 1,5 C 3,9 C 4,7 C 4,7 C 0,8 C 53 % 56 % 1018,3 hPa 0,0 l/m 0,6 km/h (0 Bft) O-SO 112 0 min -4,8 C 4,7 C 1,9 km/h (1 Bft)
15.02.2018 14:55 3,9 C 1,5 C 3,9 C 4,6 C 4,6 C 0,7 C 53 % 56 % 1018,3 hPa 0,0 l/m 0,8 km/h (0 Bft) S-SO 157 0 min -4,8 C 4,6 C 2,6 km/h (1 Bft)
15.02.2018 15:00 3,9 C 1,5 C 3,7 C 4,5 C 4,5 C 0,6 C 52 % 56 % 1018,3 hPa 0,0 l/m 1,0 km/h (0 Bft) O-SO 112 0 min -5,0 C 4,5 C 0,0 km/h (0 Bft)
15.02.2018 15:05 3,9 C 1,5 C 3,6 C 4,5 C 4,5 C 0,6 C 53 % 56 % 1018,3 hPa 0,0 l/m 0,8 km/h (0 Bft) SW 225 0 min -4,8 C 4,5 C 2,4 km/h (1 Bft)
15.02.2018 15:10 3,8 C 1,5 C 3,7 C 4,5 C 4,5 C 0,7 C 53 % 56 % 1018,3 hPa 0,0 l/m 0,5 km/h (0 Bft) O-SO 112 0 min -4,9 C 4,5 C 2,3 km/h (1 Bft)
15.02.2018 15:15 3,9 C 1,5 C 3,7 C 4,5 C 4,5 C 0,6 C 52 % 56 % 1018,3 hPa 0,0 l/m 0,6 km/h (0 Bft) O-SO 112 0 min -5,0 C 4,5 C 2,1 km/h (1 Bft)
15.02.2018 15:20 3,7 C 1,5 C 3,6 C 4,4 C 4,4 C 0,7 C 52 % 55 % 1018,3 hPa 0,0 l/m 0,8 km/h (0 Bft) O 90 0 min -5,2 C 4,4 C 1,8 km/h (1 Bft)
15.02.2018 15:25 3,7 C 1,5 C 3,6 C 4,3 C 4,3 C 0,6 C 52 % 56 % 1018,3 hPa 0,0 l/m 0,6 km/h (0 Bft) S-SO 157 0 min -5,2 C 4,3 C 0,0 km/h (0 Bft)
15.02.2018 15:30 3,7 C 1,5 C 3,6 C 4,2 C 4,2 C 0,5 C 52 % 56 % 1018,3 hPa 0,0 l/m 0,5 km/h (0 Bft) SO 135 0 min -5,2 C 4,2 C 0,0 km/h (0 Bft)
15.02.2018 15:35 3,7 C 1,5 C 3,5 C 4,2 C 4,2 C 0,5 C 51 % 56 % 1018,3 hPa 0,0 l/m 1,3 km/h (1 Bft) O 90 0 min -5,5 C 4,2 C 2,6 km/h (1 Bft)
15.02.2018 15:40 3,7 C 1,5 C 3,5 C 4,1 C 4,1 C 0,4 C 51 % 55 % 1018,6 hPa 0,0 l/m 1,6 km/h (1 Bft) S 180 0 min -5,5 C 4,1 C 9,3 km/h (2 Bft)
15.02.2018 15:45 3,7 C 1,5 C 3,5 C 4,1 C 4,1 C 0,4 C 51 % 56 % 1018,6 hPa 0,0 l/m 1,6 km/h (1 Bft) O-SO 112 0 min -5,5 C 4,1 C 0,0 km/h (0 Bft)
15.02.2018 15:50 3,6 C 1,5 C 3,3 C 4,0 C 4,0 C 0,4 C 52 % 58 % 1018,6 hPa 0,0 l/m 2,4 km/h (1 Bft) O-SO 112 0 min -5,3 C 4,0 C 2,3 km/h (1 Bft)
15.02.2018 15:55 3,5 C 1,5 C 3,2 C 3,8 C 3,8 C 0,3 C 54 % 59 % 1018,6 hPa 0,0 l/m 2,4 km/h (1 Bft) O-SO 112 0 min -4,9 C 3,8 C 3,2 km/h (1 Bft)
15.02.2018 16:00 3,4 C 1,5 C 3,2 C 3,7 C 3,7 C 0,3 C 54 % 59 % 1018,2 hPa 0,0 l/m 2,3 km/h (1 Bft) SO 135 0 min -5,0 C 3,7 C 0,0 km/h (0 Bft)
15.02.2018 16:05 3,4 C 1,5 C 3,2 C 3,6 C 3,6 C 0,2 C 55 % 59 % 1018,2 hPa 0,0 l/m 0,6 km/h (0 Bft) O-SO 112 0 min -4,8 C 3,6 C 1,6 km/h (1 Bft)
15.02.2018 16:11 3,3 C 1,5 C 3,1 C 3,6 C 3,6 C 0,3 C 55 % 60 % 1018,2 hPa 0,0 l/m 0,8 km/h (0 Bft) N 0 0 min -4,9 C 3,6 C 3,1 km/h (1 Bft)
15.02.2018 16:26 3,1 C 1,6 C 3,1 C 3,2 C 3,2 C 0,1 C 56 % 60 % 1018,4 hPa 0,0 l/m 2,6 km/h (1 Bft) O-SO 112 0 min -4,8 C 3,2 C 4,0 km/h (1 Bft)
15.02.2018 16:27 3,1 C 1,6 C 3,1 C 3,2 C 3,2 C 0,1 C 56 % 60 % 1018,4 hPa 0,0 l/m 2,6 km/h (1 Bft) O-SO 112 0 min -4,8 C 3,2 C 4,0 km/h (1 Bft)
15.02.2018 16:35 3,1 C 1,6 C 3,0 C 3,1 C 3,1 C 0,0 C 56 % 60 % 1018,4 hPa 0,0 l/m 2,4 km/h (1 Bft) SO 135 0 min -4,8 C 3,1 C 1,6 km/h (1 Bft)
15.02.2018 16:40 3,1 C 1,6 C 2,9 C 3,1 C 3,1 C 0,0 C 56 % 61 % 1018,4 hPa 0,0 l/m 2,6 km/h (1 Bft) O-SO 112 0 min -4,8 C 3,1 C 5,5 km/h (1 Bft)
15.02.2018 16:45 2,9 C 1,6 C 2,7 C 2,9 C 2,9 C 0,0 C 57 % 61 % 1018,4 hPa 0,0 l/m 2,7 km/h (1 Bft) W-SW 247 0 min -4,8 C 2,9 C 3,2 km/h (1 Bft)
15.02.2018 16:50 2,9 C 1,6 C 2,7 C 2,9 C 2,8 C 0,0 C 57 % 62 % 1018,4 hPa 0,0 l/m 2,4 km/h (1 Bft) W 270 0 min -4,8 C 2,8 C 1,9 km/h (1 Bft)
15.02.2018 16:55 2,8 C 1,6 C 2,5 C 2,8 C 2,7 C 0,0 C 58 % 62 % 1018,4 hPa 0,0 l/m 1,1 km/h (1 Bft) S-SW 202 0 min -4,6 C 2,7 C 2,7 km/h (1 Bft)
15.02.2018 17:00 2,8 C 1,6 C 2,5 C 2,7 C 2,6 C 0,0 C 58 % 63 % 1018,4 hPa 0,0 l/m 1,8 km/h (1 Bft) W-SW 247 0 min -4,6 C 2,6 C 6,0 km/h (2 Bft)
15.02.2018 17:05 2,8 C 1,6 C 2,5 C 2,6 C 2,2 C 0,0 C 59 % 65 % 1018,4 hPa 0,0 l/m 3,5 km/h (1 Bft) O-SO 112 0 min -4,4 C 2,2 C 14,8 km/h (3 Bft)
15.02.2018 17:10 2,8 C 1,6 C 2,5 C 2,3 C 1,2 C 0,0 C 60 % 66 % 1018,4 hPa 0,0 l/m 5,5 km/h (1 Bft) W-SW 247 0 min -4,2 C -0,4 C 8,4 km/h (2 Bft)
15.02.2018 17:15 2,8 C 1,6 C 2,4 C 2,3 C 1,2 C 0,0 C 61 % 66 % 1018,4 hPa 0,0 l/m 5,5 km/h (1 Bft) S-SW 202 0 min -4,0 C -0,4 C 18,3 km/h (3 Bft)
15.02.2018 17:20 2,7 C 1,6 C 2,4 C 2,4 C 1,7 C 0,0 C 61 % 66 % 1018,6 hPa 0,0 l/m 4,0 km/h (1 Bft) O-NO 67 0 min -4,1 C 1,7 C 3,2 km/h (1 Bft)
15.02.2018 17:25 2,7 C 1,6 C 2,3 C 2,5 C 2,1 C 0,0 C 62 % 67 % 1018,6 hPa 0,0 l/m 3,1 km/h (1 Bft) S 180 0 min -3,8 C 2,1 C 4,8 km/h (1 Bft)
15.02.2018 17:30 2,5 C 1,6 C 2,3 C 2,3 C 2,0 C 0,0 C 63 % 70 % 1018,6 hPa 0,0 l/m 3,1 km/h (1 Bft) O-SO 112 0 min -3,8 C 2,0 C 3,5 km/h (1 Bft)
15.02.2018 17:35 2,2 C 1,6 C 1,9 C 1,9 C 1,3 C 0,0 C 66 % 73 % 1018,6 hPa 0,0 l/m 3,5 km/h (1 Bft) S-SW 202 0 min -3,5 C 1,3 C 1,9 km/h (1 Bft)
15.02.2018 17:40 2,1 C 1,8 C 1,6 C 1,8 C 1,2 C 0,0 C 68 % 75 % 1018,6 hPa 0,0 l/m 3,2 km/h (1 Bft) W-SW 247 0 min -3,2 C 1,2 C 3,2 km/h (1 Bft)
15.02.2018 17:45 1,6 C 1,9 C 1,3 C 1,3 C 0,6 C 0,0 C 70 % 77 % 1018,6 hPa 0,0 l/m 3,5 km/h (1 Bft) O-SO 112 0 min -3,3 C 0,6 C 0,0 km/h (0 Bft)
15.02.2018 17:50 1,5 C 2,0 C 1,2 C 1,1 C 0,4 C 0,0 C 71 % 77 % 1018,6 hPa 0,0 l/m 3,2 km/h (1 Bft) W-SW 247 0 min -3,2 C 0,4 C 3,2 km/h (1 Bft)
15.02.2018 17:55 1,3 C 2,0 C 1,1 C 1,1 C 0,7 C 0,0 C 73 % 79 % 1018,6 hPa 0,0 l/m 1,3 km/h (1 Bft) SO 135 0 min -3,0 C 0,7 C 2,4 km/h (1 Bft)
15.02.2018 18:00 1,2 C 2,0 C 0,9 C 1,0 C 0,5 C 0,0 C 74 % 80 % 1018,6 hPa 0,0 l/m 0,8 km/h (0 Bft) O-SO 112 0 min -2,9 C 0,5 C 2,1 km/h (1 Bft)
15.02.2018 18:05 1,1 C 2,0 C 0,8 C 0,9 C 0,4 C 0,0 C 75 % 80 % 1018,6 hPa 0,0 l/m 0,5 km/h (0 Bft) O 90 0 min -2,8 C 0,4 C 1,9 km/h (1 Bft)
15.02.2018 18:11 0,9 C 2,0 C 0,7 C 0,7 C 0,4 C 0,0 C 76 % 80 % 1018,6 hPa 0,0 l/m 0,3 km/h (0 Bft) N 0 0 min -2,8 C 0,4 C 0,0 km/h (0 Bft)
15.02.2018 18:26 0,7 C 2,0 C 0,5 C 0,5 C 0,1 C 0,0 C 78 % 82 % 1018,6 hPa 0,0 l/m 0,3 km/h (0 Bft) O-SO 112 0 min -2,7 C 0,1 C 0,0 km/h (0 Bft)
15.02.2018 18:35 0,6 C 1,9 C 0,4 C 0,4 C 0,1 C 0,0 C 79 % 83 % 1018,6 hPa 0,0 l/m 0,3 km/h (0 Bft) O-SO 112 0 min -2,6 C 0,1 C 2,3 km/h (1 Bft)
15.02.2018 18:40 0,5 C 1,9 C 0,4 C 0,4 C 0,1 C 0,0 C 79 % 83 % 1018,6 hPa 0,0 l/m 0,3 km/h (0 Bft) SO 135 0 min -2,7 C 0,1 C 2,6 km/h (1 Bft)
15.02.2018 18:45 0,5 C 1,9 C 0,4 C 0,4 C 0,1 C 0,0 C 79 % 84 % 1018,6 hPa 0,0 l/m 0,3 km/h (0 Bft) SO 135 0 min -2,7 C 0,1 C 0,0 km/h (0 Bft)
15.02.2018 18:50 0,4 C 1,9 C 0,4 C 0,3 C 0,1 C 0,0 C 79 % 84 % 1018,6 hPa 0,0 l/m 0,3 km/h (0 Bft) O-SO 112 0 min -2,8 C 0,1 C 0,0 km/h (0 Bft)
15.02.2018 18:55 0,4 C 1,9 C 0,4 C 0,3 C 0,1 C 0,0 C 80 % 84 % 1018,6 hPa 0,0 l/m 0,0 km/h (0 Bft) O-SO 112 0 min -2,6 C 0,1 C 0,0 km/h (0 Bft)
15.02.2018 19:00 0,4 C 1,9 C 0,4 C 0,3 C 0,1 C 0,0 C 80 % 84 % 1018,8 hPa 0,0 l/m 0,0 km/h (0 Bft) O-SO 112 0 min -2,6 C 0,1 C 0,0 km/h (0 Bft)
15.02.2018 19:05 0,4 C 1,9 C 0,4 C 0,3 C 0,1 C 0,0 C 80 % 84 % 1018,8 hPa 0,0 l/m 0,0 km/h (0 Bft) SO 135 0 min -2,6 C 0,1 C 0,0 km/h (0 Bft)
15.02.2018 19:10 0,4 C 1,9 C 0,4 C 0,3 C 0,2 C 0,0 C 80 % 84 % 1018,8 hPa 0,0 l/m 0,0 km/h (0 Bft) O-SO 112 0 min -2,6 C 0,2 C 0,0 km/h (0 Bft)
15.02.2018 19:15 0,4 C 1,9 C 0,4 C 0,3 C 0,2 C 0,0 C 80 % 84 % 1018,8 hPa 0,0 l/m 0,0 km/h (0 Bft) O-SO 112 0 min -2,6 C 0,2 C 0,0 km/h (0 Bft)
15.02.2018 19:20 0,4 C 1,9 C 0,4 C 0,3 C 0,2 C 0,0 C 81 % 84 % 1018,1 hPa 0,0 l/m 0,0 km/h (0 Bft) S 180 0 min -2,5 C 0,2 C 0,0 km/h (0 Bft)
15.02.2018 19:25 0,4 C 1,9 C 0,4 C 0,4 C 0,3 C 0,0 C 81 % 84 % 1018,1 hPa 0,0 l/m 0,2 km/h (0 Bft) O-SO 112 0 min -2,5 C 0,3 C 0,0 km/h (0 Bft)
15.02.2018 19:30 0,5 C 1,9 C 0,4 C 0,4 C 0,3 C 0,0 C 81 % 84 % 1018,1 hPa 0,0 l/m 0,2 km/h (0 Bft) S 180 0 min -2,4 C 0,3 C 0,0 km/h (0 Bft)
15.02.2018 19:35 0,5 C 1,9 C 0,4 C 0,4 C 0,3 C 0,0 C 81 % 85 % 1018,1 hPa 0,0 l/m 0,0 km/h (0 Bft) O-SO 112 0 min -2,4 C 0,3 C 0,0 km/h (0 Bft)
15.02.2018 19:40 0,5 C 1,9 C 0,5 C 0,5 C 0,4 C 0,0 C 81 % 85 % 1018,5 hPa 0,0 l/m 0,0 km/h (0 Bft) SO 135 0 min -2,4 C 0,4 C 0,0 km/h (0 Bft)
15.02.2018 19:45 0,5 C 1,9 C 0,5 C 0,5 C 0,4 C 0,0 C 81 % 85 % 1018,5 hPa 0,0 l/m 0,0 km/h (0 Bft) SW 225 0 min -2,4 C 0,4 C 0,0 km/h (0 Bft)
15.02.2018 19:50 0,5 C 1,9 C 0,5 C 0,5 C 0,4 C 0,0 C 81 % 85 % 1018,5 hPa 0,0 l/m 0,0 km/h (0 Bft) SW 225 0 min -2,4 C 0,4 C 0,0 km/h (0 Bft)
15.02.2018 19:55 0,5 C 1,9 C 0,4 C 0,5 C 0,4 C 0,0 C 81 % 85 % 1018,5 hPa 0,0 l/m 0,2 km/h (0 Bft) S-SW 202 0 min -2,4 C 0,4 C 1,8 km/h (1 Bft)
15.02.2018 20:00 0,5 C 1,9 C 0,4 C 0,5 C 0,4 C 0,0 C 81 % 85 % 1018,5 hPa 0,0 l/m 0,3 km/h (0 Bft) S 180 0 min -2,4 C 0,4 C 0,0 km/h (0 Bft)
15.02.2018 20:05 0,5 C 1,9 C 0,4 C 0,5 C 0,4 C 0,0 C 82 % 85 % 1018,5 hPa 0,0 l/m 0,2 km/h (0 Bft) SW 225 0 min -2,2 C 0,4 C 0,0 km/h (0 Bft)
15.02.2018 20:11 0,5 C 1,9 C 0,4 C 0,5 C 0,4 C 0,0 C 82 % 85 % 1018,5 hPa 0,0 l/m 0,0 km/h (0 Bft) N 0 0 min -2,2 C 0,4 C 0,0 km/h (0 Bft)
15.02.2018 20:26 0,7 C 1,9 C 0,7 C 0,6 C 0,5 C 0,0 C 82 % 86 % 1018,5 hPa 0,0 l/m 0,6 km/h (0 Bft) W 270 0 min -2,0 C 0,5 C 2,4 km/h (1 Bft)
15.02.2018 20:27 0,7 C 1,9 C 0,7 C 0,6 C 0,5 C 0,0 C 82 % 86 % 1018,5 hPa 0,0 l/m 0,6 km/h (0 Bft) W 270 0 min -2,0 C 0,5 C 2,4 km/h (1 Bft)
15.02.2018 20:35 0,8 C 1,9 C 0,7 C 0,8 C 0,7 C 0,0 C 82 % 86 % 1018,5 hPa 0,0 l/m 1,1 km/h (1 Bft) SW 225 0 min -1,9 C 0,7 C 3,7 km/h (1 Bft)
15.02.2018 20:40 0,8 C 1,8 C 0,7 C 0,8 C 0,7 C 0,0 C 82 % 86 % 1018,4 hPa 0,0 l/m 1,0 km/h (0 Bft) W-SW 247 0 min -1,9 C 0,7 C 1,8 km/h (1 Bft)
15.02.2018 20:45 0,9 C 1,9 C 0,8 C 0,9 C 0,9 C 0,0 C 82 % 86 % 1018,4 hPa 0,0 l/m 1,0 km/h (0 Bft) SW 225 0 min -1,8 C 0,9 C 0,0 km/h (0 Bft)
15.02.2018 20:50 1,0 C 1,8 C 0,9 C 1,0 C 0,9 C 0,0 C 82 % 86 % 1018,4 hPa 0,0 l/m 0,5 km/h (0 Bft) W-SW 247 0 min -1,7 C 0,9 C 2,4 km/h (1 Bft)
15.02.2018 20:55 1,1 C 1,9 C 0,8 C 1,0 C 0,9 C 0,0 C 82 % 85 % 1018,4 hPa 0,0 l/m 1,1 km/h (1 Bft) S 180 0 min -1,6 C 0,9 C 0,0 km/h (0 Bft)
15.02.2018 21:00 1,2 C 1,8 C 0,9 C 1,2 C 1,1 C 0,0 C 82 % 86 % 1018,2 hPa 0,0 l/m 1,8 km/h (1 Bft) SW 225 0 min -1,5 C 1,1 C 4,0 km/h (1 Bft)
15.02.2018 21:05 1,3 C 1,8 C 1,1 C 1,2 C 1,1 C 0,0 C 82 % 86 % 1018,2 hPa 0,0 l/m 2,7 km/h (1 Bft) S-SW 202 0 min -1,4 C 1,1 C 6,0 km/h (2 Bft)
15.02.2018 21:10 1,5 C 1,8 C 1,1 C 1,4 C 1,2 C 0,0 C 82 % 86 % 1018,2 hPa 0,0 l/m 2,9 km/h (1 Bft) W-SW 247 0 min -1,2 C 1,2 C 3,4 km/h (1 Bft)
15.02.2018 21:15 1,6 C 1,8 C 1,3 C 1,5 C 1,2 C 0,0 C 82 % 86 % 1018,2 hPa 0,0 l/m 3,2 km/h (1 Bft) W-SW 247 0 min -1,1 C 1,2 C 3,9 km/h (1 Bft)
15.02.2018 21:20 1,6 C 1,8 C 1,4 C 1,6 C 1,6 C 0,0 C 82 % 86 % 1018,2 hPa 0,0 l/m 2,7 km/h (1 Bft) SW 225 0 min -1,1 C 1,6 C 6,1 km/h (2 Bft)
15.02.2018 21:25 1,9 C 1,8 C 1,5 C 1,9 C 1,9 C 0,0 C 81 % 86 % 1018,2 hPa 0,0 l/m 2,7 km/h (1 Bft) W 270 0 min -1,0 C 1,9 C 0,0 km/h (0 Bft)
15.02.2018 21:30 2,0 C 1,8 C 1,5 C 2,0 C 2,0 C 0,0 C 81 % 85 % 1018,2 hPa 0,0 l/m 2,4 km/h (1 Bft) W 270 0 min -0,9 C 2,0 C 0,0 km/h (0 Bft)
15.02.2018 21:35 2,0 C 1,8 C 1,6 C 2,0 C 2,0 C 0,0 C 81 % 85 % 1018,2 hPa 0,0 l/m 1,4 km/h (1 Bft) W-SW 247 0 min -0,9 C 2,0 C 0,0 km/h (0 Bft)
15.02.2018 21:40 2,0 C 1,8 C 1,7 C 2,1 C 2,1 C 0,1 C 81 % 85 % 1018,8 hPa 0,0 l/m 1,6 km/h (1 Bft) S-SW 202 0 min -0,9 C 2,1 C 3,2 km/h (1 Bft)
15.02.2018 21:45 2,1 C 1,9 C 1,6 C 2,1 C 2,1 C 0,0 C 81 % 85 % 1018,8 hPa 0,0 l/m 1,8 km/h (1 Bft) N-NW 337 0 min -0,8 C 2,1 C 3,5 km/h (1 Bft)
15.02.2018 21:50 2,1 C 1,9 C 1,7 C 2,1 C 2,1 C 0,0 C 81 % 85 % 1018,8 hPa 0,0 l/m 2,3 km/h (1 Bft) W 270 0 min -0,8 C 2,1 C 6,4 km/h (2 Bft)
15.02.2018 21:55 2,3 C 1,9 C 1,9 C 2,1 C 1,8 C 0,0 C 81 % 85 % 1018,8 hPa 0,0 l/m 3,1 km/h (1 Bft) SW 225 0 min -0,6 C 1,8 C 1,9 km/h (1 Bft)
15.02.2018 22:00 2,3 C 1,9 C 1,9 C 2,1 C 1,6 C 0,0 C 81 % 85 % 1018,8 hPa 0,0 l/m 3,5 km/h (1 Bft) W-SW 247 0 min -0,6 C 1,6 C 5,5 km/h (1 Bft)
15.02.2018 22:05 2,3 C 1,9 C 1,9 C 2,1 C 1,8 C 0,0 C 81 % 86 % 1018,8 hPa 0,0 l/m 3,1 km/h (1 Bft) NW 315 0 min -0,6 C 1,8 C 5,8 km/h (2 Bft)
15.02.2018 22:11 2,3 C 1,9 C 1,8 C 2,1 C 1,7 C 0,0 C 81 % 86 % 1018,8 hPa 0,0 l/m 3,1 km/h (1 Bft) N 0 0 min -0,6 C 1,7 C 2,9 km/h (1 Bft)
15.02.2018 22:26 2,3 C 2,0 C 1,8 C 2,0 C 1,3 C 0,0 C 81 % 86 % 1018,7 hPa 0,0 l/m 3,5 km/h (1 Bft) W 270 0 min -0,6 C 1,3 C 2,9 km/h (1 Bft)
15.02.2018 22:35 2,2 C 2,0 C 1,8 C 2,1 C 1,8 C 0,0 C 81 % 86 % 1018,7 hPa 0,0 l/m 2,7 km/h (1 Bft) N 360 0 min -0,7 C 1,8 C 4,2 km/h (1 Bft)
15.02.2018 22:40 2,3 C 2,0 C 1,9 C 2,0 C 1,4 C 0,0 C 81 % 86 % 1018,7 hPa 0,0 l/m 3,4 km/h (1 Bft) W-NW 292 0 min -0,6 C 1,4 C 5,5 km/h (1 Bft)
15.02.2018 22:45 2,3 C 2,0 C 1,9 C 1,9 C 1,2 C 0,0 C 82 % 87 % 1018,7 hPa 0,0 l/m 3,9 km/h (1 Bft) W-SW 247 0 min -0,4 C 1,2 C 4,0 km/h (1 Bft)
15.02.2018 22:50 2,3 C 2,0 C 1,9 C 1,9 C 1,1 C 0,0 C 82 % 86 % 1018,7 hPa 0,0 l/m 4,2 km/h (1 Bft) W 270 0 min -0,4 C 1,1 C 6,6 km/h (2 Bft)
15.02.2018 22:55 2,3 C 2,0 C 1,8 C 1,9 C 1,0 C 0,0 C 82 % 86 % 1018,7 hPa 0,0 l/m 4,3 km/h (1 Bft) SW 225 0 min -0,4 C 1,0 C 4,8 km/h (1 Bft)
15.02.2018 23:00 2,2 C 2,0 C 1,8 C 1,9 C 1,3 C 0,0 C 82 % 86 % 1018,8 hPa 0,0 l/m 4,0 km/h (1 Bft) S 180 0 min -0,5 C 1,3 C 6,9 km/h (2 Bft)
15.02.2018 23:05 2,2 C 2,0 C 1,9 C 2,0 C 1,7 C 0,0 C 82 % 86 % 1018,8 hPa 0,0 l/m 3,2 km/h (1 Bft) S-SW 202 0 min -0,5 C 1,7 C 3,1 km/h (1 Bft)
15.02.2018 23:10 2,3 C 2,0 C 2,0 C 2,3 C 2,2 C 0,0 C 82 % 86 % 1018,8 hPa 0,0 l/m 2,7 km/h (1 Bft) O-SO 112 0 min -0,4 C 2,2 C 3,2 km/h (1 Bft)
15.02.2018 23:15 2,4 C 2,0 C 2,1 C 2,1 C 1,4 C 0,0 C 82 % 86 % 1018,8 hPa 0,0 l/m 4,0 km/h (1 Bft) W-SW 247 0 min -0,4 C 1,4 C 6,9 km/h (2 Bft)
15.02.2018 23:20 2,4 C 2,0 C 2,0 C 2,1 C 1,6 C 0,0 C 82 % 86 % 1018,8 hPa 0,0 l/m 3,5 km/h (1 Bft) S-SO 157 0 min -0,4 C 1,6 C 2,4 km/h (1 Bft)
15.02.2018 23:25 2,5 C 2,0 C 2,0 C 2,3 C 1,8 C 0,0 C 82 % 86 % 1018,8 hPa 0,0 l/m 3,2 km/h (1 Bft) S-SO 157 0 min -0,3 C 1,8 C 4,8 km/h (1 Bft)
15.02.2018 23:30 2,4 C 2,0 C 2,1 C 2,3 C 2,2 C 0,0 C 82 % 86 % 1018,8 hPa 0,0 l/m 2,6 km/h (1 Bft) S 180 0 min -0,4 C 2,2 C 0,0 km/h (0 Bft)
15.02.2018 23:35 2,4 C 2,0 C 2,1 C 2,4 C 2,3 C 0,0 C 82 % 86 % 1018,8 hPa 0,0 l/m 2,6 km/h (1 Bft) W-NW 292 0 min -0,4 C 2,3 C 4,7 km/h (1 Bft)
15.02.2018 23:40 2,4 C 2,0 C 2,0 C 2,4 C 2,3 C 0,0 C 82 % 86 % 1018,8 hPa 0,0 l/m 2,3 km/h (1 Bft) W 270 0 min -0,4 C 2,3 C 0,0 km/h (0 Bft)
15.02.2018 23:45 2,4 C 2,0 C 2,1 C 2,3 C 2,2 C 0,0 C 82 % 87 % 1018,8 hPa 0,0 l/m 2,7 km/h (1 Bft) SW 225 0 min -0,4 C 2,2 C 4,8 km/h (1 Bft)
15.02.2018 23:50 2,5 C 2,0 C 2,0 C 2,4 C 2,2 C 0,0 C 82 % 87 % 1018,8 hPa 0,0 l/m 2,9 km/h (1 Bft) W 270 0 min -0,3 C 2,2 C 3,7 km/h (1 Bft)
15.02.2018 23:55 2,4 C 2,0 C 2,0 C 2,4 C 2,4 C 0,0 C 82 % 86 % 1018,8 hPa 0,0 l/m 2,6 km/h (1 Bft) SW 225 0 min -0,4 C 2,4 C 3,9 km/h (1 Bft)
_ Min-Zeit 05:35 10:55 05:35 05:35 05:30 00:00 15:35 14:26 19:20 - 00:00 - - - 05:35 05:30 00:00
Minimum _ -6,5 C 1,4 C -6,8 C -6,8 C -7,6 C 0,0 C 51 % 55 % 1018,1 hPa - 0,0 km/h (0 Bft) - - - -8,4 C -7,6 C 0,0 km/h (0 Bft)
_ Max-Zeit 14:00 00:35 13:05 13:05 13:05 12:00 08:35 08:05 03:00 00:00 17:10 - - 08:35 23:25 13:05 17:15
Maximum _ 4,3 C 2,1 C 4,3 C 5,7 C 5,7 C 2,3 C 88 % 91 % 1022,8 hPa 0,0 l/m 5,5 km/h
W-SW (1 Bft)
- - 9 min -0,3 C 5,7 C 18,3 km/h
S-SW (3 Bft)
Durchschnitt _ -1,1 C 1,7 C -1,0 C -0,8 C -1,1 C 0,5 C 77 % 81 % 1020,2 hPa #0,0 l/m 0,9 km/h (0 Bft) O-SO - #14 min. -4,9 C -1,1 C 1,5 km/h (1 Bft)
2018 www.wetterstation-wechselburg.de